EW0159 Weather Reports


Display with metric or nautical units.
time (UTC)temp
F
wind
direction
speed
MPH
gust
MPH
rain 1hr
in
rain 24hr
in
rain mn
in
humidity
%
barometer
mb
20260901204512 65 146 2.0 6.0 0.00 0.01 0.01 73 1011.0
20260901203008 66 225 2.0 6.0 0.00 0.01 0.01 72 1011.1
20260901201506 65 150 0.0 5.0 0.00 0.01 0.01 73 1011.1
20260901200006 65 169 1.0 5.0 0.00 0.01 0.01 74 1011.1
20260901194503 65 167 0.0 5.0 0.00 0.01 0.01 76 1011.2
20260901193005 64 215 2.0 7.0 0.00 0.01 0.01 76 1011.4
20260901191503 64 148 0.0 6.0 0.00 0.01 0.01 76 1011.4
20260901190002 64 234 0.0 4.0 0.00 0.01 0.01 77 1011.6
20260901184558 63 168 2.0 4.0 0.00 0.01 0.01 79 1011.7
20260901183059 62 248 0.0 5.0 0.00 0.01 0.01 80 1011.8
20260901181558 62 146 0.0 4.0 0.00 0.01 0.01 80 1011.9
20260901180053 60 167 1.0 4.0 0.01 0.01 0.01 78 1011.9
20260901174556 59 107 0.0 2.0 0.01 0.01 0.01 75 1011.9
20260901173052 59 150 0.0 3.0 0.01 0.01 0.01 71 1011.9
20260901171607 59 136 0.0 2.0 0.01 0.01 0.01 71 1011.8
20260901170055 58 195 0.0 2.0 0.00 0.00 0.00 71 1011.7
20260901164556 58 167 0.0 3.0 0.00 0.00 0.00 70 1011.6
20260901163105 58 196 0.0 2.0 0.00 0.00 0.00 69 1011.6
20260901161546 58 173 0.0 0.0 0.00 0.00 0.00 69 1011.7
20260901160045 58 223 0.0 0.0 0.00 0.00 0.00 69 1011.8
20260901154553 57 246 0.0 0.0 0.00 0.00 0.00 70 1011.7
20260901153044 57 246 0.0 0.0 0.00 0.00 0.00 70 1011.7
20260901151544 57 246 0.0 0.0 0.00 0.00 0.00 71 1011.7
20260901150041 57 115 0.0 0.0 0.00 0.00 0.00 72 1011.5
20260901144540 57 115 0.0 0.0 0.00 0.00 0.00 72 1011.4
20260901143039 57 115 0.0 0.0 0.00 0.00 0.00 73 1011.4
20260901141537 57 115 0.0 0.0 0.00 0.00 0.00 74 1011.2
20260901140036 57 115 0.0 0.0 0.00 0.00 0.00 76 1011.3
20260901134534 57 115 0.0 0.0 0.00 0.00 0.00 77 1011.2
20260901133033 57 115 0.0 0.0 0.00 0.00 0.00 78 1011.1
20260901131532 58 115 0.0 0.0 0.00 0.00 0.00 78 1011.1
20260901130031 58 115 0.0 0.0 0.00 0.00 0.00 79 1011.0
20260901124529 58 115 0.0 0.0 0.00 0.00 0.00 80 1010.9
20260901123029 58 115 0.0 0.0 0.00 0.00 0.00 80 1010.9
20260901121536 57 71 0.0 0.0 0.00 0.00 0.00 79 1010.9
20260901120027 57 71 0.0 0.0 0.00 0.00 0.00 79 1010.8
20260901114526 57 71 0.0 0.0 0.00 0.00 0.00 79 1010.9
20260901113025 57 71 0.0 0.0 0.00 0.00 0.00 79 1010.8
20260901111523 56 71 0.0 0.0 0.00 0.00 0.00 79 1010.7
20260901110021 56 71 0.0 0.0 0.00 0.00 0.00 79 1010.5
20260901104532 56 71 0.0 0.0 0.00 0.00 0.00 79 1010.5
20260901103028 56 71 0.0 0.0 0.00 0.00 0.00 79 1010.5
20260901101518 56 71 0.0 0.0 0.00 0.00 0.00 79 1010.5
20260901100015 57 71 0.0 0.0 0.00 0.00 0.00 80 1010.4
20260901094520 57 71 0.0 0.0 0.00 0.00 0.00 80 1010.2
20260901093009 58 71 0.0 0.0 0.00 0.00 0.00 80 1010.1
20260901091512 58 71 0.0 0.0 0.00 0.00 0.00 80 1010.0
20260901090009 59 71 0.0 0.0 0.00 0.00 0.00 80 1009.9
20260901084507 58 71 0.0 0.0 0.00 0.00 0.00 80 1009.9
20260901083003 59 38 0.0 0.0 0.00 0.00 0.00 80 1009.8
20260901081500 59 38 0.0 0.0 0.00 0.00 0.00 79 1009.7
20260901080112 59 38 0.0 0.0 0.00 0.00 0.00 79 1009.6
20260901074555 60 38 0.0 0.0 0.00 0.00 0.00 79 1009.4
20260901073053 60 38 0.0 0.0 0.00 0.00 0.00 78 1009.2
20260901071600 61 38 0.0 0.0 0.00 0.00 0.00 78 1009.1
20260901070058 61 38 0.0 0.0 0.00 0.00 0.00 78 1008.8
20260901064604 61 38 0.0 0.0 0.00 0.00 0.00 77 1008.6
20260901063102 62 38 0.0 0.0 0.00 0.00 0.00 77 1008.2
20260901061546 63 38 0.0 0.0 0.00 0.00 0.00 76 1008.1
20260901060046 63 55 0.0 0.0 0.00 0.00 0.00 75 1008.0
20260901054546 64 55 0.0 0.0 0.00 0.00 0.00 74 1008.0
20260901053045 65 55 0.0 0.0 0.00 0.00 0.00 73 1007.9
20260901051551 65 55 0.0 0.0 0.00 0.00 0.00 71 1008.0
20260901050044 66 55 0.0 0.0 0.00 0.00 0.00 70 1007.9
20260901044543 67 43 0.0 0.0 0.00 0.00 0.00 68 1007.7
20260901043046 67 38 0.0 0.0 0.00 0.00 0.00 67 1007.6
20260901041543 68 38 0.0 0.0 0.00 0.00 0.00 66 1007.3
20260901040042 69 207 0.0 0.0 0.00 0.00 0.00 62 1007.1
20260901034548 70 207 0.0 0.0 0.00 0.00 0.00 59 1006.7
20260901033044 72 207 0.0 0.0 0.00 0.00 0.00 57 1006.7
20260901031547 74 200 0.0 0.0 0.00 0.00 0.00 53 1006.5
20260901030041 74 296 0.0 3.0 0.00 0.00 0.00 56 1006.5
20260901024540 75 46 0.0 0.0 0.00 0.00 0.00 45 1006.4
20260901023040 78 336 0.0 0.0 0.00 0.00 0.00 42 1006.4
20260901021549 81 158 0.0 0.0 0.00 0.00 0.00 39 1006.3
20260901020038 83 158 0.0 0.0 0.00 0.00 0.00 32 1006.2
20260901014538 84 158 0.0 0.0 0.00 0.00 0.00 30 1006.2
20260901013055 85 232 0.0 1.0 0.00 0.00 0.00 29 1006.2
20260901011535 85 207 0.0 0.0 0.00 0.00 0.00 30 1006.2
20260901010044 85 215 0.0 1.0 0.00 0.00 0.00 31 1006.4
20260901004536 84 176 0.0 3.0 0.00 0.00 0.00 33 1006.4
20260901003030 85 233 0.0 5.0 0.00 0.00 0.00 32 1006.4
20260901001528 87 163 0.0 2.0 0.00 0.00 0.00 31 1006.5
20260901000027 87 250 0.0 3.0 0.00 0.00 0.00 32 1006.5
20260831234526 87 221 0.0 4.0 0.00 0.00 0.00 31 1006.5
20260831233024 87 200 0.0 3.0 0.00 0.00 0.00 32 1006.6
20260831231521 86 241 0.0 1.0 0.00 0.00 0.00 33 1006.8
20260831230019 87 188 1.0 7.0 0.00 0.00 0.00 32 1007.0
20260831224517 86 136 0.0 6.0 0.00 0.00 0.00 33 1007.0
20260831223026 86 195 1.0 7.0 0.00 0.00 0.00 33 1007.1
20260831221516 86 225 0.0 8.0 0.00 0.00 0.00 33 1007.2
20260831220012 86 154 2.0 10.0 0.00 0.00 0.00 34 1007.4
20260831214509 86 206 5.0 9.0 0.00 0.00 0.00 36 1007.5
20260831213007 85 96 2.0 9.0 0.00 0.00 0.00 35 1007.6
20260831211508 85 167 1.0 8.0 0.00 0.00 0.00 36 1007.8
20260831210003 84 268 0.0 8.0 0.00 0.00 0.00 37 1007.9